Find Starlink 32391

NORAD ID: 61855 Int'l Des: 2024-202 Owner: SPXS Country: US Constellation: starlink operational
LEOCIRCULAR

Live Position

Loading 3D Globe...

About Starlink 32391

Description loading...

Upcoming Passes

Passes for default location (London). Set your location on the main map for personalized predictions.

Altitude History

Loading altitude history...

Two-Line Element Set

1 61855U 24202L 26126.45204150 .00000035 00000-0 10801-4 0 9995
2 61855 43.0025 271.6083 0000884 267.5684 92.5067 15.27559715 84161
Epoch: May 6, 2026 • Age: 19 hours

Current Status

Altitude 486.3 km
Velocity 7.63 km/s
Sub-Earth Point 40.92°N, 19.6°E
Launch Date Nov 7, 2024
Age 1.4 years
Type internet

Technical Details

Classification Payload
Mass 730.00 kg
Dry Mass 700.00 kg
Total Mass 730.00 kg
Length 0.30 m
Diameter 4.10 m
Span 29.00 m
Shape Box + pan
Manufacturer SPXS
Bus Type Starlink V2M
Phase Status In Orbit
Owner/State SPXS/US

Most Searched